Location: Proctor
(47.8934°N, 114.3048°W)
Time: 20:59:07
(UTC+00:00)

Tiros 1 despin weight - Pass Details

Date: 28 June 2024
Orbit: 576 x 620 km, 48.2° (Epoch: 19 July)

Event Time Altitude Azimuth Distance (km) Brightness Sun altitude
Rises 22:01:33 0° 284° (WNW) 2,897 ? 52.7°
Reaches altitude 10° 22:03:54 10° 280° (W) 1,990 ? 52.4°
Maximum altitude 22:08:23 56° 203° (SSW) 737 ? 51.7°
Drops below altitude 10° 22:12:50 10° 125° (SE) 1,975 ? 51.1°
Sets 22:15:10 0° 121° (ESE) 2,874 ? 50.7°
